| time (UTC) | temp C | wind direction | speed KPH | gust KPH | rain 1hr cm | rain 24hr cm | rain mn cm | humidity % | barometer mb |
| 20260505012157 | 12 | 30 | 3.2 | 4.8 | 0.00 | 0.00 | 0.00 | 75 | 1004.8 |
| 20260505011653 | 11 | 305 | 1.6 | 3.2 | 0.00 | 0.00 | 0.00 | 76 | 1004.9 |
| 20260505011150 | 11 | 351 | 4.8 | 8.0 | 0.00 | 0.00 | 0.00 | 78 | 1004.8 |
| 20260505010645 | 11 | 264 | 4.8 | 4.8 | 0.00 | 0.00 | 0.00 | 80 | 1005.0 |
| 20260505010143 | 11 | 321 | 1.6 | 1.6 | 0.00 | 0.00 | 0.00 | 80 | 1005.0 |
| 20260505005638 | 10 | 315 | 0.0 | 1.6 | 0.00 | 0.00 | 0.00 | 82 | 1004.8 |
| 20260505005136 | 10 | 320 | 0.0 | 0.0 | 0.00 | 0.00 | 0.00 | 83 | 1004.9 |
| 20260505004633 | 10 | 310 | 1.6 | 1.6 | 0.00 | 0.00 | 0.00 | 83 | 1004.8 |
| 20260505004129 | 10 | 306 | 0.0 | 1.6 | 0.00 | 0.00 | 0.00 | 83 | 1004.5 |
| 20260505003627 | 10 | 312 | 0.0 | 0.0 | 0.00 | 0.00 | 0.00 | 83 | 1004.4 |
| 20260505003124 | 10 | 313 | 1.6 | 1.6 | 0.00 | 0.00 | 0.00 | 83 | 1004.4 |
| 20260505002620 | 10 | 304 | 1.6 | 1.6 | 0.00 | 0.00 | 0.00 | 82 | 1004.3 |
| 20260505002119 | 11 | 312 | 0.0 | 0.0 | 0.00 | 0.00 | 0.00 | 81 | 1004.2 |
| 20260505001615 | 11 | 310 | 0.0 | 0.0 | 0.00 | 0.00 | 0.00 | 80 | 1004.0 |
| 20260505001113 | 11 | 311 | 1.6 | 1.6 | 0.00 | 0.00 | 0.00 | 79 | 1003.8 |
| 20260505000610 | 11 | 306 | 1.6 | 1.6 | 0.00 | 0.00 | 0.00 | 77 | 1003.9 |
| 20260505000108 | 12 | 304 | 3.2 | 3.2 | 0.00 | 0.00 | 0.00 | 75 | 1003.9 |
| 20260504235604 | 12 | 312 | 3.2 | 3.2 | 0.00 | 0.00 | 0.00 | 73 | 1003.6 |
| 20260504235100 | 13 | 305 | 3.2 | 3.2 | 0.00 | 0.00 | 0.00 | 68 | 1003.7 |
| 20260504234557 | 13 | 303 | 1.6 | 1.6 | 0.00 | 0.00 | 0.00 | 66 | 1003.6 |
| 20260504234055 | 15 | 305 | 1.6 | 1.6 | 0.00 | 0.00 | 0.00 | 63 | 1003.6 |
| 20260504233550 | 16 | 293 | 1.6 | 1.6 | 0.00 | 0.00 | 0.00 | 58 | 1003.3 |
| 20260504233047 | 19 | 305 | 1.6 | 1.6 | 0.00 | 0.00 | 0.00 | 41 | 1003.3 |
| 20260504232544 | 19 | 305 | 0.0 | 1.6 | 0.00 | 0.00 | 0.00 | 41 | 1003.3 |
| 20260504232042 | 19 | 306 | 0.0 | 1.6 | 0.00 | 0.00 | 0.00 | 41 | 1003.1 |
| 20260504231538 | 20 | 305 | 1.6 | 1.6 | 0.00 | 0.00 | 0.00 | 40 | 1003.1 |
| 20260504231034 | 20 | 307 | 1.6 | 1.6 | 0.00 | 0.00 | 0.00 | 40 | 1002.8 |
| 20260504230530 | 20 | 307 | 0.0 | 1.6 | 0.00 | 0.00 | 0.00 | 40 | 1002.8 |
| 20260504230030 | 20 | 308 | 0.0 | 1.6 | 0.00 | 0.00 | 0.00 | 39 | 1002.7 |
| 20260504225526 | 20 | 305 | 1.6 | 1.6 | 0.00 | 0.00 | 0.00 | 39 | 1002.7 |
| 20260504225023 | 20 | 307 | 0.0 | 0.0 | 0.00 | 0.00 | 0.00 | 40 | 1002.9 |
| 20260504224520 | 20 | 306 | 1.6 | 1.6 | 0.00 | 0.00 | 0.00 | 38 | 1002.8 |
| 20260504224017 | 20 | 307 | 1.6 | 1.6 | 0.00 | 0.00 | 0.00 | 40 | 1002.8 |
| 20260504223514 | 20 | 306 | 1.6 | 1.6 | 0.00 | 0.00 | 0.00 | 40 | 1002.6 |
| 20260504223010 | 20 | 307 | 0.0 | 0.0 | 0.00 | 0.00 | 0.00 | 40 | 1002.4 |
| 20260504222507 | 20 | 299 | 1.6 | 1.6 | 0.00 | 0.00 | 0.00 | 38 | 1002.4 |
| 20260504222004 | 20 | 307 | 1.6 | 1.6 | 0.00 | 0.00 | 0.00 | 38 | 1002.5 |
| 20260504221501 | 20 | 305 | 3.2 | 4.8 | 0.00 | 0.00 | 0.00 | 38 | 1002.6 |
| 20260504220958 | 20 | 303 | 1.6 | 3.2 | 0.00 | 0.00 | 0.00 | 39 | 1002.6 |
| 20260504220454 | 21 | 307 | 1.6 | 1.6 | 0.00 | 0.00 | 0.00 | 39 | 1002.5 |
| 20260504215951 | 20 | 309 | 1.6 | 3.2 | 0.00 | 0.00 | 0.00 | 38 | 1002.7 |
| 20260504215448 | 21 | 290 | 0.0 | 1.6 | 0.00 | 0.00 | 0.00 | 38 | 1002.6 |
| 20260504214945 | 21 | 304 | 1.6 | 3.2 | 0.00 | 0.00 | 0.00 | 38 | 1002.5 |
| 20260504214441 | 21 | 287 | 0.0 | 1.6 | 0.00 | 0.00 | 0.00 | 37 | 1002.6 |
| 20260504213938 | 21 | 307 | 3.2 | 4.8 | 0.00 | 0.00 | 0.00 | 37 | 1002.5 |
| 20260504213434 | 21 | 280 | 3.2 | 4.8 | 0.00 | 0.00 | 0.00 | 37 | 1002.5 |
| 20260504212932 | 21 | 307 | 1.6 | 1.6 | 0.00 | 0.00 | 0.00 | 37 | 1002.6 |
| 20260504212427 | 21 | 304 | 1.6 | 1.6 | 0.00 | 0.00 | 0.00 | 37 | 1002.6 |
| 20260504211925 | 21 | 304 | 1.6 | 1.6 | 0.00 | 0.00 | 0.00 | 37 | 1002.5 |
| 20260504211421 | 21 | 271 | 3.2 | 4.8 | 0.00 | 0.00 | 0.00 | 38 | 1002.5 |
| 20260504210919 | 21 | 274 | 3.2 | 4.8 | 0.00 | 0.00 | 0.00 | 37 | 1002.3 |
| 20260504210415 | 21 | 310 | 1.6 | 3.2 | 0.00 | 0.00 | 0.00 | 37 | 1002.4 |
| 20260504205913 | 21 | 307 | 3.2 | 3.2 | 0.00 | 0.00 | 0.00 | 38 | 1002.6 |
| 20260504205410 | 21 | 302 | 3.2 | 3.2 | 0.00 | 0.00 | 0.00 | 38 | 1002.6 |
| 20260504204908 | 22 | 308 | 1.6 | 1.6 | 0.00 | 0.00 | 0.00 | 36 | 1002.5 |
| 20260504204406 | 22 | 307 | 3.2 | 3.2 | 0.00 | 0.00 | 0.00 | 37 | 1002.5 |
| 20260504203906 | 21 | 307 | 1.6 | 1.6 | 0.00 | 0.00 | 0.00 | 37 | 1002.4 |
| 20260504203402 | 22 | 308 | 1.6 | 3.2 | 0.00 | 0.00 | 0.00 | 37 | 1002.4 |
| 20260504202858 | 21 | 308 | 1.6 | 1.6 | 0.00 | 0.00 | 0.00 | 37 | 1002.6 |
| 20260504202355 | 21 | 303 | 3.2 | 3.2 | 0.00 | 0.00 | 0.00 | 38 | 1002.5 |
| 20260504201851 | 21 | 304 | 1.6 | 1.6 | 0.00 | 0.00 | 0.00 | 38 | 1002.6 |
| 20260504201349 | 21 | 301 | 3.2 | 3.2 | 0.00 | 0.00 | 0.00 | 39 | 1002.5 |
| 20260504200846 | 21 | 296 | 1.6 | 3.2 | 0.00 | 0.00 | 0.00 | 39 | 1002.5 |
| 20260504200343 | 20 | 308 | 1.6 | 3.2 | 0.00 | 0.00 | 0.00 | 40 | 1002.5 |
| 20260504195839 | 20 | 309 | 1.6 | 1.6 | 0.00 | 0.00 | 0.00 | 40 | 1002.4 |
| 20260504195335 | 20 | 297 | 4.8 | 4.8 | 0.00 | 0.00 | 0.00 | 39 | 1002.3 |
| 20260504194832 | 20 | 309 | 4.8 | 8.0 | 0.00 | 0.00 | 0.00 | 39 | 1002.6 |
| 20260504194328 | 20 | 301 | 1.6 | 3.2 | 0.00 | 0.00 | 0.00 | 40 | 1002.4 |
| 20260504193824 | 21 | 300 | 0.0 | 1.6 | 0.00 | 0.00 | 0.00 | 40 | 1002.7 |
| 20260504193322 | 21 | 300 | 3.2 | 3.2 | 0.00 | 0.00 | 0.00 | 39 | 1002.6 |
| 20260504192820 | 21 | 302 | 3.2 | 3.2 | 0.00 | 0.00 | 0.00 | 40 | 1002.8 |
| 20260504192318 | 21 | 304 | 1.6 | 1.6 | 0.00 | 0.00 | 0.00 | 40 | 1002.9 |
| 20260504191816 | 20 | 305 | 1.6 | 1.6 | 0.00 | 0.00 | 0.00 | 41 | 1002.8 |
| 20260504191313 | 20 | 306 | 3.2 | 3.2 | 0.00 | 0.00 | 0.00 | 41 | 1002.9 |
| 20260504190809 | 20 | 304 | 1.6 | 1.6 | 0.00 | 0.00 | 0.00 | 42 | 1003.0 |
| 20260504190305 | 19 | 310 | 0.0 | 0.0 | 0.00 | 0.00 | 0.00 | 42 | 1002.9 |
| 20260504185801 | 19 | 304 | 1.6 | 3.2 | 0.00 | 0.00 | 0.00 | 41 | 1003.0 |
| 20260504185258 | 19 | 305 | 1.6 | 1.6 | 0.00 | 0.00 | 0.00 | 41 | 1003.3 |
| 20260504184755 | 19 | 306 | 1.6 | 1.6 | 0.00 | 0.00 | 0.00 | 42 | 1003.1 |
| 20260504184250 | 19 | 307 | 0.0 | 0.0 | 0.00 | 0.00 | 0.00 | 41 | 1003.0 |
| 20260504183746 | 19 | 306 | 1.6 | 3.2 | 0.00 | 0.00 | 0.00 | 41 | 1003.3 |
| 20260504183243 | 19 | 307 | 1.6 | 1.6 | 0.00 | 0.00 | 0.00 | 40 | 1002.9 |
| 20260504182742 | 19 | 308 | 1.6 | 3.2 | 0.00 | 0.00 | 0.00 | 39 | 1002.9 |
| 20260504182238 | 19 | 305 | 1.6 | 1.6 | 0.00 | 0.00 | 0.00 | 40 | 1003.0 |
| 20260504181736 | 20 | 308 | 3.2 | 4.8 | 0.00 | 0.00 | 0.00 | 39 | 1002.8 |
| 20260504181233 | 20 | 308 | 3.2 | 3.2 | 0.00 | 0.00 | 0.00 | 39 | 1002.9 |
| 20260504180732 | 20 | 300 | 1.6 | 3.2 | 0.00 | 0.00 | 0.00 | 38 | 1003.0 |
| 20260504180231 | 20 | 279 | 3.2 | 3.2 | 0.00 | 0.00 | 0.00 | 39 | 1002.9 |
| 20260504175728 | 20 | 303 | 3.2 | 3.2 | 0.00 | 0.00 | 0.00 | 38 | 1003.0 |
| 20260504175224 | 20 | 309 | 1.6 | 3.2 | 0.00 | 0.00 | 0.00 | 37 | 1002.8 |
| 20260504174723 | 20 | 310 | 1.6 | 3.2 | 0.00 | 0.00 | 0.00 | 38 | 1002.6 |
| 20260504174220 | 20 | 261 | 4.8 | 8.0 | 0.00 | 0.00 | 0.00 | 37 | 1003.1 |
| 20260504173716 | 20 | 318 | 3.2 | 3.2 | 0.00 | 0.00 | 0.00 | 37 | 1002.9 |
| 20260504173213 | 20 | 288 | 4.8 | 8.0 | 0.00 | 0.00 | 0.00 | 38 | 1002.8 |
| 20260504172710 | 20 | 278 | 8.0 | 11.3 | 0.00 | 0.00 | 0.00 | 36 | 1002.9 |
| 20260504172206 | 20 | 320 | 3.2 | 4.8 | 0.00 | 0.00 | 0.00 | 37 | 1002.8 |
| 20260504171703 | 21 | 278 | 8.0 | 12.9 | 0.00 | 0.00 | 0.00 | 35 | 1002.7 |
| 20260504171200 | 21 | 302 | 4.8 | 9.7 | 0.00 | 0.00 | 0.00 | 34 | 1002.8 |
| 20260504170656 | 21 | 281 | 4.8 | 8.0 | 0.00 | 0.00 | 0.00 | 36 | 1002.7 |
| 20260504170154 | 21 | 305 | 1.6 | 3.2 | 0.00 | 0.00 | 0.00 | 36 | 1002.9 |
| 20260504160113 | 17 | 311 | 1.6 | 3.2 | 0.00 | 0.00 | 0.00 | 52 | 1003.5 |
| 20260504151039 | 19 | 276 | 6.4 | 8.0 | 0.00 | 0.00 | 0.00 | 43 | 1004.4 |
| 20260504150537 | 18 | 297 | 3.2 | 3.2 | 0.00 | 0.00 | 0.00 | 45 | 1004.4 |
| 20260504141003 | 16 | 296 | 4.8 | 9.7 | 0.00 | 0.00 | 0.00 | 47 | 1005.3 |
| 20260504140459 | 16 | 295 | 3.2 | 3.2 | 0.00 | 0.00 | 0.00 | 51 | 1005.4 |
| 20260504130424 | 12 | 310 | 3.2 | 4.8 | 0.00 | 0.00 | 0.00 | 61 | 1006.2 |
| 20260504110311 | 10 | 300 | 1.6 | 3.2 | 0.00 | 0.00 | 0.00 | 60 | 1006.5 |
| 20260504100229 | 6 | 301 | 1.6 | 1.6 | 0.00 | 0.00 | 0.00 | 70 | 1006.5 |
| 20260504081622 | 5 | 306 | 1.6 | 3.2 | 0.00 | 0.00 | 0.00 | 69 | 1006.4 |
| 20260504081118 | 5 | 307 | 1.6 | 1.6 | 0.00 | 0.00 | 0.00 | 70 | 1006.4 |
| 20260504080615 | 5 | 307 | 0.0 | 0.0 | 0.00 | 0.00 | 0.00 | 71 | 1006.6 |
| 20260504080111 | 5 | 303 | 1.6 | 1.6 | 0.00 | 0.00 | 0.00 | 70 | 1006.3 |
| 20260504050427 | 3 | 308 | 0.0 | 0.0 | 0.00 | 0.00 | 0.00 | 74 | 1006.3 |
| 20260504045925 | 4 | 307 | 0.0 | 1.6 | 0.00 | 0.00 | 0.00 | 73 | 1006.3 |
| 20260504045420 | 4 | 307 | 0.0 | 1.6 | 0.00 | 0.00 | 0.00 | 73 | 1006.2 |
| 20260504044916 | 4 | 306 | 0.0 | 0.0 | 0.00 | 0.00 | 0.00 | 73 | 1006.2 |
| 20260504044414 | 4 | 308 | 0.0 | 0.0 | 0.00 | 0.00 | 0.00 | 73 | 1006.1 |
| 20260504043912 | 4 | 307 | 0.0 | 1.6 | 0.00 | 0.00 | 0.00 | 73 | 1006.3 |
| 20260504043408 | 4 | 307 | 1.6 | 1.6 | 0.00 | 0.00 | 0.00 | 73 | 1006.3 |
| 20260504042906 | 4 | 306 | 0.0 | 1.6 | 0.00 | 0.00 | 0.00 | 73 | 1006.2 |
| 20260504042402 | 4 | 308 | 0.0 | 1.6 | 0.00 | 0.00 | 0.00 | 73 | 1006.2 |
| 20260504041858 | 4 | 308 | 0.0 | 0.0 | 0.00 | 0.00 | 0.00 | 74 | 1006.2 |
| 20260504041355 | 4 | 308 | 0.0 | 0.0 | 0.00 | 0.00 | 0.00 | 73 | 1006.1 |
| 20260504040850 | 4 | 308 | 0.0 | 0.0 | 0.00 | 0.00 | 0.00 | 73 | 1006.1 |
| 20260504040349 | 4 | 308 | 0.0 | 0.0 | 0.00 | 0.00 | 0.00 | 72 | 1006.0 |
| 20260504035844 | 4 | 311 | 0.0 | 0.0 | 0.00 | 0.00 | 0.00 | 72 | 1006.2 |
| 20260504035342 | 4 | 312 | 0.0 | 0.0 | 0.00 | 0.00 | 0.00 | 74 | 1005.9 |
| 20260504034839 | 4 | 312 | 0.0 | 0.0 | 0.00 | 0.00 | 0.00 | 74 | 1006.1 |
| 20260504034336 | 4 | 313 | 0.0 | 0.0 | 0.00 | 0.00 | 0.00 | 73 | 1005.8 |
| 20260504033833 | 5 | 313 | 0.0 | 0.0 | 0.00 | 0.00 | 0.00 | 76 | 1005.7 |
| 20260504033331 | 4 | 307 | 0.0 | 0.0 | 0.00 | 0.00 | 0.00 | 74 | 1006.0 |
| 20260504032827 | 3 | 307 | 0.0 | 0.0 | 0.00 | 0.00 | 0.00 | 74 | 1005.8 |
| 20260504032325 | 4 | 307 | 0.0 | 0.0 | 0.00 | 0.00 | 0.00 | 77 | 1005.9 |
| 20260504031822 | 3 | 307 | 0.0 | 0.0 | 0.00 | 0.00 | 0.00 | 76 | 1005.8 |
| 20260504031319 | 3 | 307 | 0.0 | 0.0 | 0.00 | 0.00 | 0.00 | 78 | 1005.8 |
| 20260504030815 | 3 | 307 | 0.0 | 0.0 | 0.00 | 0.00 | 0.00 | 81 | 1005.7 |
| 20260504030313 | 3 | 307 | 0.0 | 0.0 | 0.00 | 0.00 | 0.00 | 84 | 1005.6 |
| 20260504025808 | 3 | 307 | 0.0 | 0.0 | 0.00 | 0.00 | 0.00 | 84 | 1005.8 |
| 20260504025306 | 4 | 307 | 0.0 | 0.0 | 0.00 | 0.00 | 0.00 | 85 | 1005.7 |
| 20260504024802 | 4 | 307 | 0.0 | 0.0 | 0.00 | 0.00 | 0.00 | 83 | 1005.7 |
| 20260504024259 | 4 | 307 | 0.0 | 0.0 | 0.00 | 0.00 | 0.00 | 81 | 1005.8 |
| 20260504023755 | 4 | 307 | 0.0 | 0.0 | 0.00 | 0.00 | 0.00 | 80 | 1005.8 |
| 20260504023252 | 5 | 307 | 0.0 | 0.0 | 0.00 | 0.00 | 0.00 | 80 | 1005.7 |
| 20260504022748 | 5 | 307 | 0.0 | 0.0 | 0.00 | 0.00 | 0.00 | 80 | 1005.6 |
| 20260504022244 | 5 | 307 | 0.0 | 0.0 | 0.00 | 0.00 | 0.00 | 79 | 1005.6 |
| 20260504021741 | 5 | 307 | 0.0 | 0.0 | 0.00 | 0.00 | 0.00 | 78 | 1005.8 |
| 20260504021239 | 5 | 307 | 0.0 | 0.0 | 0.00 | 0.00 | 0.00 | 77 | 1005.7 |
| 20260504020736 | 5 | 307 | 0.0 | 0.0 | 0.00 | 0.00 | 0.00 | 73 | 1005.9 |
| 20260504020232 | 5 | 307 | 0.0 | 0.0 | 0.00 | 0.00 | 0.00 | 65 | 1005.8 |
| 20260504015728 | 5 | 307 | 0.0 | 0.0 | 0.00 | 0.00 | 0.00 | 65 | 1005.9 |
| 20260504015225 | 6 | 307 | 0.0 | 0.0 | 0.00 | 0.00 | 0.00 | 65 | 1005.8 |
| 20260504014720 | 6 | 307 | 0.0 | 0.0 | 0.00 | 0.00 | 0.00 | 64 | 1005.8 |
| 20260504014217 | 6 | 306 | 0.0 | 0.0 | 0.00 | 0.00 | 0.00 | 64 | 1005.7 |
| 20260504013715 | 6 | 306 | 0.0 | 0.0 | 0.00 | 0.00 | 0.00 | 64 | 1005.9 |
| 20260504013213 | 6 | 306 | 0.0 | 0.0 | 0.00 | 0.00 | 0.00 | 63 | 1005.6 |
| 20260504012709 | 6 | 306 | 0.0 | 0.0 | 0.00 | 0.00 | 0.00 | 63 | 1005.5 |